This is the latest recevied weather packets stored in our database for station/object DB0ADS-6. If no packets are shown the sender has not sent any weather packets the latest 10 day(s).
| Time | Temp. | Humidity | Pressure | Rain* | Wind** | Luminosity | Snow |
|---|---|---|---|---|---|---|---|
| 1777480820 | 14.44° C | 30% | 1022.3 hPa | 0 mm | - | - | - |
| 1777480519 | 14.44° C | 30% | 1022.1 hPa | 0 mm | - | - | - |
| 1777480218 | 14.44° C | 30% | 1022.2 hPa | 0 mm | - | - | - |
| 1777479915 | 14.44° C | 31% | 1022.1 hPa | 0 mm | - | - | - |
| 1777479674 | 14.44° C | 30% | 1022 hPa | 0 mm | - | - | - |
| 1777479372 | 15° C | 31% | 1021.9 hPa | 0 mm | - | - | - |
| 1777479070 | 15° C | 30% | 1021.9 hPa | 0 mm | - | - | - |
| 1777478768 | 15° C | 30% | 1021.9 hPa | 0 mm | - | - | - |
| 1777478467 | 15° C | 31% | 1021.9 hPa | 0 mm | - | - | - |
| 1777478165 | 15° C | 30% | 1021.8 hPa | 0 mm | - | - | - |
| 1777477863 | 15.56° C | 29% | 1021.9 hPa | 0 mm | - | - | - |
| 1777477562 | 15.56° C | 31% | 1021.8 hPa | 0 mm | - | - | - |
| 1777477260 | 15.56° C | 29% | 1021.8 hPa | 0 mm | - | - | - |
| 1777476958 | 15.56° C | 29% | 1021.8 hPa | 0 mm | - | - | - |
| 1777476659 | 16.11° C | 29% | 1021.8 hPa | 0 mm | - | - | - |
| 1777476354 | 15.56° C | 28% | 1021.7 hPa | 0 mm | - | - | - |
| 1777476073 | 16.11° C | 28% | 1021.8 hPa | 0 mm | - | - | - |
| 1777475751 | 16.11° C | 28% | 1021.7 hPa | 0 mm | - | - | - |
| 1777475450 | 16.11° C | 28% | 1021.7 hPa | 0 mm | - | - | - |
| 1777475148 | 16.11° C | 28% | 1021.7 hPa | 0 mm | - | - | - |
| 1777474846 | 16.11° C | 28% | 1021.8 hPa | 0 mm | - | - | - |
| 1777474564 | 15.56° C | 27% | 1021.9 hPa | 0 mm | - | - | - |
| 1777474243 | 16.11° C | 27% | 1021.9 hPa | 0 mm | - | - | - |
| 1777473941 | 16.67° C | 27% | 1021.9 hPa | 0 mm | - | - | - |
| 1777473639 | 16.11° C | 27% | 1021.8 hPa | 0 mm | - | - | - |
* Rain latest hour (hover to see other rain measurements)
** Current wind speed in m/s (hover to see current wind gust speed)